Location: Coupvray
(48.8929°N, 2.7967°E)
Time: 08:29:01
(UTC+00:00)

Cosmos 1802 Rocket - Pass Details

Date: 14 July 2020
Orbit: 954 x 1012 km, 82.9° (Epoch: 14 August)

Event Time Altitude Azimuth Distance (km) Brightness Sun altitude
Exits shadow 01:03:01 22° 163° (SSE) 2,050 5.2 -17.8°
Maximum altitude 01:07:11 58° 92° (E) 1,172 4.5 -17.6°
Drops below altitude 10° 01:13:28 10° 16° (NNE) 2,804 7.7 -17.3°
Sets 01:16:04 0° 13° (NNE) 3,759 8.8 -17.2°
